User: anonymous   Login
Location: Unspecified
(0.0000°N, 0.0000°E)
Time: 02:59:52
(UTC+00:00)
Language:

Telstar 1 - Orbit

View from above orbital plane
View from above orbital plane
View from above satellite
View from above satellite

Ground track
Ground track

The orbit data is extracted from the following two-line orbital elements,

1   340U 62029A   18171.60808677 -.00000064 +00000-0 -13723-3 0  9997
2   340 044.8062 350.6221 2424593 099.8386 330.4623 09.12868383865888
Epoch (UTC): 20 June 2018 14:35:38
Eccentricity: 0.2424593
inclination: 44.8062°
perigee height: 948 km
apogee height: 5637 km
right ascension of ascending node: 350.6221°
argument of perigee: 99.8386°
revolutions per day: 9.12868383
mean anomaly at epoch: 330.4623°
orbit number at epoch: 86588

The dashed part of the orbit path shows where the satellite is in the earth's shadow,  

DLR